This demonstration page uses our WeatherBlox Daily Observations layout. Learn more.

Left ArrowRight Arrow

Hourly Observations for February 27, 2022

Temp ( °F °C ) Dew Point ( °F °C ) Humidity (%) Winds ( mph kmh ) Pressure ( in mb ) Visibility ( mi km ) Precip ( " mm )
12:15 am 00:15 Clear 18 -8 1 -17.1 48 48 WNW 7 11 30.51 1033 10 16 0.00 0.00
12:35 am 00:35 Clear 18 -8 1 -17.1 48 48 WNW 6 9 30.51 1033 10 16 0.00 0.00
12:55 am 00:55 Clear 17 -8.4 2 -16.7 52 52 WNW 7 11 30.51 1033 10 16 0.00 0.00
1:15 am 01:15 Clear 17 -8.3 2 -16.6 52 52 WNW 6 9 30.52 1033 10 16 0.00 0.00
1:35 am 01:35 Clear 17 -8.3 2 -16.5 52 52 WNW 6 9 30.52 1033 10 16 0.00 0.00
1:55 am 01:55 Clear 18 -7.8 3 -16.1 52 52 WNW 5 7 30.51 1033 10 16 0.00 0.00
2:15 am 02:15 Clear 19 -7.5 4 -15.5 53 53 WNW 5 7 30.51 1033 10 16 0.00 0.00
2:35 am 02:35 Clear 18 -8 2 -16.5 51 51 W 5 7 30.52 1033 10 16 0.00 0.00
2:55 am 02:55 Clear 19 -7.2 5 -14.9 55 55 W 8 13 30.51 1033 10 16 0.00 0.00
3:15 am 03:15 Clear 20 -6.8 5 -15.2 52 52 WNW 7 11 30.49 1033 10 16 0.00 0.00
3:35 am 03:35 Clear 16 -8.8 2 -16.5 54 54 W 6 9 30.51 1033 10 16 0.00 0.00
3:55 am 03:55 Clear 16 -9 3 -16.2 56 56 W 6 9 30.52 1033 10 16 0.00 0.00
4:15 am 04:15 Clear 15 -9.2 3 -16.2 57 57 W 3 6 30.51 1033 10 16 0.00 0.00
4:35 am 04:35 Clear 17 -8.6 4 -15.5 58 58 W 5 7 30.50 1033 10 16 0.00 0.00
4:55 am 04:55 Clear 17 -8.4 4 -15.4 57 57 WSW 5 7 30.50 1033 10 16 0.00 0.00
5:15 am 05:15 Clear 18 -7.8 6 -14.5 59 59 W 7 11 30.49 1033 10 16 0.00 0.00
5:35 am 05:35 Clear 17 -8.3 6 -14.6 61 61 W 6 9 30.51 1033 10 16 0.00 0.00
5:50 am 05:50 Clear 17 -8.3 6 -14.3 62 62 W 6 9 30.51 1033 10 16 0.00 0.00
6:15 am 06:15 Clear 18 -7.7 8 -13.6 63 63 W 7 11 30.50 1033 10 16 0.00 0.00
6:35 am 06:35 Clear 18 -8 7 -13.9 63 63 W 6 9 30.51 1033 10 16 0.00 0.00
6:55 am 06:55 Clear 17 -8.2 7 -13.9 64 64 W 6 9 30.50 1033 10 16 0.00 0.00
7:15 am 07:15 Sunny 17 -8.6 7 -14.1 65 65 WSW 5 7 30.50 1033 10 16 0.00 0.00
7:35 am 07:35 Sunny 18 -8 8 -13.6 64 64 W 3 6 30.50 1033 10 16 0.00 0.00
7:55 am 07:55 Sunny 20 -6.5 9 -12.6 62 62 W 6 9 30.48 1032 10 16 0.00 0.00
8:15 am 08:15 Sunny 23 -4.9 10 -12.1 57 57 W 7 11 30.46 1032 10 16 0.00 0.00
8:35 am 08:35 Sunny 26 -3.3 10 -12 51 51 W 9 15 30.45 1031 10 16 0.00 0.00
8:55 am 08:55 Sunny 29 -1.8 11 -11.7 47 47 W 7 11 30.43 1031 10 16 0.00 0.00
9:15 am 09:15 Sunny 32 0.2 11 -11.6 41 41 W 9 15 30.41 1030 10 16 0.00 0.00
9:35 am 09:35 Sunny 35 1.8 11 -11.6 37 37 W 10 17 30.40 1029 10 16 0.00 0.00
9:55 am 09:55 Sunny 38 3.2 12 -11.3 34 34 W 13 20 30.39 1029 10 16 0.00 0.00
10:15 am 10:15 Sunny 40 4.3 12 -10.9 32 32 W 10 17 30.37 1028 10 16 0.00 0.00
10:35 am 10:35 Sunny 42 5.4 12 -10.9 30 30 WSW 10 17 30.35 1028 10 16 0.00 0.00
10:55 am 10:55 Sunny 43 5.9 12 -11.1 29 29 W 14 22 30.34 1027 10 16 0.00 0.00
11:15 am 11:15 Sunny 45 7 12 -11.3 26 26 WSW 14 22 30.33 1027 10 16 0.00 0.00
11:35 am 11:35 Sunny 45 7.3 11 -11.9 24 24 WSW 14 22 30.32 1027 10 16 0.00 0.00
11:55 am 11:55 Sunny 47 8.3 10 -12 23 23 WSW 14 22 30.30 1026 10 16 0.00 0.00
12:15 pm 12:15 Sunny 49 9.4 11 -11.9 21 21 WSW 14 22 30.28 1025 10 16 0.00 0.00
12:35 pm 12:35 Sunny 50 10.2 9 -12.9 18 18 WSW 15 24 30.25 1024 10 16 0.00 0.00
12:55 pm 12:55 Sunny 51 10.8 7 -13.7 17 17 WSW 17 28 30.24 1024 10 16 0.00 0.00
1:15 pm 13:15 Sunny 53 11.8 8 -13.4 16 16 WSW 18 30 30.22 1023 10 16 0.00 0.00
1:35 pm 13:35 Sunny 55 12.6 8 -13.5 15 15 WSW 15 24 30.20 1023 10 16 0.00 0.00
1:55 pm 13:55 Sunny 56 13.4 7 -13.8 14 14 WSW 13 20 30.18 1022 10 16 0.00 0.00
2:15 pm 14:15 Sunny 57 14 6 -14.3 13 13 W 16 26 30.18 1022 10 16 0.00 0.00
2:35 pm 14:35 Sunny 57 14.1 6 -14.6 12 12 WSW 12 19 30.17 1022 10 16 0.00 0.00
2:55 pm 14:55 Sunny 58 14.5 6 -14.5 12 12 WSW 13 20 30.15 1021 10 16 0.00 0.00
3:15 pm 15:15 Sunny 58 14.6 6 -14.2 12 12 W 10 17 30.15 1021 10 16 0.00 0.00
3:35 pm 15:35 Sunny 59 14.8 7 -13.8 13 13 W 10 17 30.15 1021 10 16 0.00 0.00
3:55 pm 15:55 Sunny 60 15.4 7 -13.7 12 12 WSW 14 22 30.13 1020 10 16 0.00 0.00
4:15 pm 16:15 Sunny 59 15.1 7 -14 12 12 W 10 17 30.13 1020 10 16 0.00 0.00
4:35 pm 16:35 Sunny 59 15.1 7 -14 12 12 W 12 19 30.12 1020 10 16 0.00 0.00
4:55 pm 16:55 Sunny 59 15 7 -14.1 12 12 W 9 15 30.12 1020 10 16 0.00 0.00
5:15 pm 17:15 Sunny 59 14.9 7 -14 12 12 WSW 7 11 30.12 1020 10 16 0.00 0.00
5:35 pm 17:35 Sunny 58 14.5 7 -14 13 13 WSW 6 9 30.11 1020 10 16 0.00 0.00
5:55 pm 17:55 Sunny 56 13.4 6 -14.3 13 13 SW 6 9 30.12 1020 10 16 0.00 0.00
6:15 pm 18:15 Sunny 53 11.8 6 -14.7 14 14 SW 6 9 30.14 1021 10 16 0.00 0.00
6:35 pm 18:35 Clear 50 9.9 4 -15.4 15 15 SW 6 9 30.15 1021 10 16 0.00 0.00
6:55 pm 18:55 Clear 48 8.7 4 -15.8 16 16 SW 7 11 30.16 1021 10 16 0.00 0.00
7:15 pm 19:15 Clear 46 7.6 3 -16.1 17 17 SW 7 11 30.16 1021 10 16 0.00 0.00
7:35 pm 19:35 Clear 44 6.7 3 -16.3 18 18 SW 7 11 30.18 1022 10 16 0.00 0.00
7:55 pm 19:55 Clear 43 6.3 2 -16.4 18 18 SW 6 9 30.19 1022 10 16 0.00 0.00
8:15 pm 20:15 Clear 44 6.6 3 -16.1 18 18 SW 7 11 30.18 1022 10 16 0.00 0.00
8:35 pm 20:35 Clear 42 5.5 3 -15.9 20 20 SW 6 9 30.20 1023 10 16 0.00 0.00
8:55 pm 20:55 Clear 41 5.2 4 -15.8 20 20 SW 5 7 30.20 1023 10 16 0.00 0.00
9:15 pm 21:15 Clear 41 5.1 3 -16 20 20 SW 5 7 30.20 1023 10 16 0.00 0.00
9:35 pm 21:35 Clear 40 4.6 3 -16 21 21 SW 6 9 30.21 1023 10 16 0.00 0.00
9:55 pm 21:55 Clear 39 4.1 3 -16.1 22 22 WSW 5 7 30.22 1023 10 16 0.00 0.00
10:15 pm 22:15 Clear 41 5 3 -16.1 20 20 WSW 3 6 30.21 1023 10 16 0.00 0.00
10:35 pm 22:35 Clear 40 4.5 3 -16 21 21 Calm 30.21 1023 10 16 0.00 0.00
10:55 pm 22:55 Clear 36 2.4 2 -16.5 24 24 Calm 30.23 1024 10 16 0.00 0.00
11:15 pm 23:15 Clear 31 -0.6 1 -17.4 27 27 Calm 30.26 1025 10 16 0.00 0.00
11:35 pm 23:35 Clear 35 1.4 2 -16.7 25 25 W 6 9 30.24 1024 10 16 0.00 0.00
11:55 pm 23:55 Clear 33 0.5 1 -17 26 26 W 7 11 30.26 1025 10 16 0.00 0.00

Powered by AerisWeather